一网星座-0376星 (ONEWEB-0376 )

导读 | 豆包AI

ONEWEB-0376是英国OneWeb低轨卫星互联网星座的成员,于2021年10月14日发射入轨,归属英国运营。OneWeb星座计划部署648颗近地轨道卫星,旨在构建覆盖全球的高速低延时卫星通信网络,为偏远地区、灾难场景等提供稳定互联服务。该卫星是OneWeb全球星座组网的重要组成部分,助力实现全球泛在宽带接入的商业目标。

Basic Information
目录编号:
49302
目录名称:
ONEWEB-0376
国际标识:
2021-090Z
轨道中心:
EARTH
卫星名称:
一网星座-0376星
卫星全名:
一网星座-0376星 (ONEWEB-0376 )
卫星状态:
在轨 (已飞行1659 天)
发射日期:
2021-10-14 UTC
国别 :
英国 (GB)
星等 :
--
Orbit Information
数据来源 国际轨道数据 AOE轨道数据
星历时间 2026-04-30T07:15:05+0800
11小时前
查看轨道信息
2026-04-28T17:00:00+0800
2天前
查看轨道信息
半长轴 7563.905km 7563.913km
偏心率 0.0001857 0.000001
轨道倾角 87.916° 87.902°
近地点辐角 82.517° 66.609°
升交点赤经 314.579° 314.889°
平近点角 277.617° 285.638°
近地点 1184.363km 1185.768km
远地点 1187.173km 1185.784km
周期 109.114分钟 109.114分钟
每日圈数 13.197259 13.197237
Detailed Information
平衡模式:
三轴稳定
覆盖范围:
全球
运营商:
一网卫星公司
运营商所在国:
英国
制造商(研发单位):
一网卫星公司
制造商所在国:
英国
使用方式:
暂无
Satellite Introduction
OneWeb卫星网络由648颗重约125公斤的微型卫星组成,运行在1200公里的轨道上。 每颗卫星都能够提供至少每秒8千兆位的吞吐量,以使用其高吞吐量的Ku频段有效载荷为家庭和移动平台提供互联网接入。该卫星仍在工作。
2D Orbit Map
3D Orbit Map
Orbit Altitude Analysis Chart
Orbit Inclination Analysis Chart
Orbit Comprehensive Analysis Chart
View Comprehensive Chart